Time,TemperatureF,DewpointF,PressureIn,WindDirection,WindDirectionDegrees,WindSpeedMPH,WindSpeedGustMPH,Humidity,HourlyPrecipIn,Conditions,Clouds,dailyrainin,SoftwareType,DateUTC
2013-01-13 00:03:00,65.2,61.9,29.82,South,189,5.0,6.0,89,0.00,,---,0.00,VWS V14.01,2013-01-13 05:03:00,
2013-01-13 00:04:00,65.2,61.9,29.82,South,184,3.0,6.0,89,0.00,,---,0.00,VWS V14.01,2013-01-13 05:04:00,
2013-01-13 00:08:00,65.2,61.9,29.82,South,188,7.0,8.0,89,0.00,,---,0.00,VWS V14.01,2013-01-13 05:08:00,
2013-01-13 00:13:00,65.3,62.0,29.81,SSW,194,6.0,7.0,89,0.00,,---,0.00,VWS V14.01,2013-01-13 05:13:00,
2013-01-13 00:16:00,65.2,61.6,29.80,South,191,4.0,6.0,88,0.00,,---,0.00,VWS V14.01,2013-01-13 05:16:00,
2013-01-13 00:21:00,65.3,61.7,29.80,SSE,161,6.0,9.0,88,0.00,,---,0.00,VWS V14.01,2013-01-13 05:21:00,
2013-01-13 00:26:00,65.4,61.8,29.80,SSW,197,8.0,8.0,88,0.00,,---,0.00,VWS V14.01,2013-01-13 05:26:00,
2013-01-13 00:31:00,65.5,61.5,29.80,SSW,198,7.0,9.0,87,0.00,,---,0.00,VWS V14.01,2013-01-13 05:31:00,
2013-01-13 00:36:00,65.7,61.4,29.79,SSW,202,10.0,13.0,86,0.00,,---,0.00,VWS V14.01,2013-01-13 05:36:00,
2013-01-13 00:41:00,65.7,61.4,29.78,SSE,164,8.0,9.0,86,0.00,,---,0.00,VWS V14.01,2013-01-13 05:41:00,
2013-01-13 00:46:00,65.8,61.5,29.78,South,175,6.0,7.0,86,0.00,,---,0.00,VWS V14.01,2013-01-13 05:46:00,
2013-01-13 00:51:00,65.8,61.2,29.78,WSW,247,11.0,11.0,85,0.00,,---,0.00,VWS V14.01,2013-01-13 05:51:00,
2013-01-13 00:56:00,65.8,61.2,29.78,SSW,192,7.0,10.0,85,0.00,,---,0.00,VWS V14.01,2013-01-13 05:56:00,
2013-01-13 01:01:00,65.8,61.2,29.78,South,184,12.0,12.0,85,0.00,,---,0.00,VWS V14.01,2013-01-13 06:01:00,
2013-01-13 01:06:00,65.8,61.2,29.77,SSE,153,8.0,13.0,85,0.00,,---,0.00,VWS V14.01,2013-01-13 06:06:00,
2013-01-13 01:11:00,65.8,61.2,29.77,SSW,198,4.0,11.0,85,0.00,,---,0.00,VWS V14.01,2013-01-13 06:11:00,
2013-01-13 01:16:00,65.8,60.8,29.77,SSE,161,8.0,9.0,84,0.00,,---,0.00,VWS V14.01,2013-01-13 06:16:00,
2013-01-13 01:21:00,65.8,60.8,29.77,South,185,5.0,12.0,84,0.00,,---,0.00,VWS V14.01,2013-01-13 06:21:00,
2013-01-13 01:26:00,65.9,60.9,29.77,SSW,201,8.0,10.0,84,0.00,,---,0.00,VWS V14.01,2013-01-13 06:26:00,
2013-01-13 01:31:00,65.9,60.9,29.77,SW,219,6.0,14.0,84,0.00,,---,0.00,VWS V14.01,2013-01-13 06:31:00,
2013-01-13 01:36:00,65.9,60.9,29.77,South,188,5.0,8.0,84,0.00,,---,0.00,VWS V14.01,2013-01-13 06:36:00,
2013-01-13 01:41:00,65.8,60.5,29.77,SSW,204,7.0,10.0,83,0.00,,---,0.00,VWS V14.01,2013-01-13 06:41:00,
2013-01-13 01:46:00,65.9,60.6,29.76,South,181,9.0,12.0,83,0.00,,---,0.00,VWS V14.01,2013-01-13 06:46:00,
2013-01-13 01:51:00,66.0,60.7,29.77,South,171,12.0,15.0,83,0.00,,---,0.00,VWS V14.01,2013-01-13 06:51:00,
2013-01-13 01:56:00,66.0,60.7,29.76,SSW,202,6.0,10.0,83,0.00,,---,0.00,VWS V14.01,2013-01-13 06:56:00,
2013-01-13 02:01:00,66.1,60.5,29.76,ESE,115,12.0,15.0,82,0.00,,---,0.00,VWS V14.01,2013-01-13 07:01:00,
2013-01-13 02:06:00,66.1,60.5,29.76,SSW,198,8.0,14.0,82,0.00,,---,0.00,VWS V14.01,2013-01-13 07:06:00,
2013-01-13 02:11:00,66.1,60.5,29.76,South,178,7.0,9.0,82,0.00,,---,0.00,VWS V14.01,2013-01-13 07:11:00,
2013-01-13 02:16:00,66.1,60.1,29.77,SSW,205,4.0,11.0,81,0.00,,---,0.00,VWS V14.01,2013-01-13 07:16:00,
2013-01-13 02:21:00,66.1,60.1,29.76,South,179,8.0,15.0,81,0.00,,---,0.00,VWS V14.01,2013-01-13 07:21:00,
2013-01-13 02:26:00,66.1,60.1,29.77,SSW,193,8.0,12.0,81,0.00,,---,0.00,VWS V14.01,2013-01-13 07:26:00,
2013-01-13 02:31:00,66.0,60.0,29.77,South,174,7.0,9.0,81,0.00,,---,0.00,VWS V14.01,2013-01-13 07:31:00,
2013-01-13 02:36:00,66.1,60.1,29.77,SE,132,5.0,9.0,81,0.00,,---,0.00,VWS V14.01,2013-01-13 07:36:00,
2013-01-13 02:41:00,66.0,60.0,29.77,SSW,198,11.0,13.0,81,0.00,,---,0.00,VWS V14.01,2013-01-13 07:41:00,
2013-01-13 02:46:00,66.1,60.1,29.77,SW,215,9.0,16.0,81,0.00,,---,0.00,VWS V14.01,2013-01-13 07:46:00,
2013-01-13 02:51:00,65.8,60.2,29.77,South,176,13.0,13.0,82,0.01,,---,0.01,VWS V14.01,2013-01-13 07:51:00,
2013-01-13 02:56:00,65.4,59.8,29.77,SSW,198,6.0,9.0,82,0.01,,---,0.01,VWS V14.01,2013-01-13 07:56:00,
2013-01-13 03:01:00,65.4,59.8,29.76,South,174,9.0,10.0,82,0.01,,---,0.01,VWS V14.01,2013-01-13 08:01:00,
2013-01-13 03:06:00,65.1,60.2,29.76,SSW,200,6.0,9.0,84,0.01,,---,0.01,VWS V14.01,2013-01-13 08:06:00,
2013-01-13 03:11:00,64.4,59.8,29.76,South,182,7.0,11.0,85,0.01,,---,0.01,VWS V14.01,2013-01-13 08:11:00,
2013-01-13 03:16:00,64.0,59.7,29.76,South,174,8.0,12.0,86,0.02,,---,0.02,VWS V14.01,2013-01-13 08:16:00,
2013-01-13 03:22:00,63.6,60.0,29.77,SSW,202,10.0,13.0,88,0.02,,---,0.02,VWS V14.01,2013-01-13 08:22:00,
2013-01-13 03:27:00,63.6,60.0,29.76,SSE,161,8.0,9.0,88,0.03,,---,0.03,VWS V14.01,2013-01-13 08:27:00,
2013-01-13 03:32:00,63.4,60.1,29.77,South,186,7.0,11.0,89,0.03,,---,0.03,VWS V14.01,2013-01-13 08:32:00,
2013-01-13 03:37:00,63.5,60.5,29.81,West,267,6.0,13.0,90,0.07,,---,0.07,VWS V14.01,2013-01-13 08:37:00,
2013-01-13 03:42:00,62.7,60.0,29.82,West,274,5.0,11.0,91,0.11,,---,0.11,VWS V14.01,2013-01-13 08:42:00,
2013-01-13 03:47:00,61.9,59.5,29.83,WNW,283,6.0,8.0,92,0.11,,---,0.11,VWS V14.01,2013-01-13 08:47:00,
2013-01-13 03:52:00,61.3,59.3,29.83,WSW,257,4.0,11.0,93,0.11,,---,0.12,VWS V14.01,2013-01-13 08:52:00,
2013-01-13 03:57:00,60.9,58.9,29.83,West,259,7.0,9.0,93,0.12,,---,0.13,VWS V14.01,2013-01-13 08:57:00,
2013-01-13 04:02:00,60.6,58.9,29.83,West,259,3.0,11.0,94,0.13,,---,0.14,VWS V14.01,2013-01-13 09:02:00,
2013-01-13 04:07:00,60.3,58.6,29.83,WSW,248,6.0,6.0,94,0.13,,---,0.14,VWS V14.01,2013-01-13 09:07:00,
2013-01-13 04:12:00,60.1,58.4,29.83,SW,229,4.0,7.0,94,0.13,,---,0.14,VWS V14.01,2013-01-13 09:12:00,
2013-01-13 04:17:00,59.9,58.2,29.84,SW,229,5.0,7.0,94,0.13,,---,0.15,VWS V14.01,2013-01-13 09:17:00,
2013-01-13 04:22:00,59.8,58.4,29.84,WSW,250,6.0,7.0,95,0.13,,---,0.15,VWS V14.01,2013-01-13 09:22:00,
2013-01-13 04:27:00,59.7,58.3,29.84,West,267,2.0,5.0,95,0.14,,---,0.16,VWS V14.01,2013-01-13 09:27:00,
2013-01-13 04:32:00,59.6,58.2,29.84,WSW,257,2.0,5.0,95,0.14,,---,0.17,VWS V14.01,2013-01-13 09:32:00,
2013-01-13 04:37:00,59.4,58.0,29.85,WSW,257,0.0,5.0,95,0.13,,---,0.17,VWS V14.01,2013-01-13 09:37:00,
2013-01-13 04:42:00,59.4,58.0,29.85,SW,222,3.0,6.0,95,0.07,,---,0.18,VWS V14.01,2013-01-13 09:42:00,
2013-01-13 04:47:00,59.3,58.2,29.85,WSW,238,1.0,2.0,96,0.09,,---,0.20,VWS V14.01,2013-01-13 09:47:00,
2013-01-13 04:52:00,59.1,58.0,29.84,WSW,257,2.0,2.0,96,0.09,,---,0.21,VWS V14.01,2013-01-13 09:52:00,
2013-01-13 04:57:00,59.0,57.9,29.84,West,261,1.0,1.0,96,0.08,,---,0.21,VWS V14.01,2013-01-13 09:57:00,
2013-01-13 05:02:00,58.9,57.8,29.84,South,182,2.0,4.0,96,0.09,,---,0.22,VWS V14.01,2013-01-13 10:02:00,
2013-01-13 05:07:00,58.9,57.8,29.84,South,173,0.0,4.0,96,0.09,,---,0.23,VWS V14.01,2013-01-13 10:07:00,
2013-01-13 05:12:00,58.7,57.6,29.83,South,171,1.0,1.0,96,0.09,,---,0.23,VWS V14.01,2013-01-13 10:12:00,
2013-01-13 05:17:00,58.7,57.6,29.83,South,175,0.0,4.0,96,0.09,,---,0.24,VWS V14.01,2013-01-13 10:17:00,
2013-01-13 05:22:00,58.6,57.8,29.85,South,190,3.0,5.0,97,0.09,,---,0.24,VWS V14.01,2013-01-13 10:22:00,
2013-01-13 05:28:00,58.6,57.5,29.85,South,190,4.0,5.0,96,0.08,,---,0.24,VWS V14.01,2013-01-13 10:28:00,
2013-01-13 05:33:00,58.5,57.7,29.85,South,190,0.0,3.0,97,0.08,,---,0.25,VWS V14.01,2013-01-13 10:33:00,
2013-01-13 05:38:00,58.5,57.7,29.86,South,190,3.0,4.0,97,0.08,,---,0.25,VWS V14.01,2013-01-13 10:38:00,
2013-01-13 05:43:00,58.4,57.6,29.86,South,185,3.0,5.0,97,0.07,,---,0.25,VWS V14.01,2013-01-13 10:43:00,
2013-01-13 05:48:00,58.3,57.5,29.87,South,180,3.0,4.0,97,0.05,,---,0.25,VWS V14.01,2013-01-13 10:48:00,
2013-01-13 05:53:00,58.3,57.5,29.85,SSW,211,0.0,3.0,97,0.05,,---,0.26,VWS V14.01,2013-01-13 10:53:00,
2013-01-13 05:58:00,58.2,57.4,29.86,SW,215,0.0,3.0,97,0.06,,---,0.27,VWS V14.01,2013-01-13 10:58:00,
2013-01-13 06:03:00,58.1,57.3,29.87,SSW,198,2.0,2.0,97,0.06,,---,0.28,VWS V14.01,2013-01-13 11:03:00,
2013-01-13 06:08:00,58.1,57.3,29.88,SW,232,0.0,5.0,97,0.06,,---,0.29,VWS V14.01,2013-01-13 11:08:00,
2013-01-13 06:13:00,58.0,57.2,29.88,SW,221,2.0,4.0,97,0.07,,---,0.30,VWS V14.01,2013-01-13 11:13:00,
2013-01-13 06:18:00,58.0,57.2,29.88,WSW,246,0.0,5.0,97,0.07,,---,0.31,VWS V14.01,2013-01-13 11:18:00,
2013-01-13 06:23:00,58.0,57.2,29.88,SSW,198,3.0,4.0,97,0.07,,---,0.31,VWS V14.01,2013-01-13 11:23:00,
2013-01-13 06:28:00,58.0,57.2,29.89,South,190,2.0,3.0,97,0.08,,---,0.32,VWS V14.01,2013-01-13 11:28:00,
2013-01-13 06:33:00,57.9,57.1,29.90,South,188,4.0,4.0,97,0.07,,---,0.32,VWS V14.01,2013-01-13 11:33:00,
2013-01-13 06:38:00,57.9,57.1,29.89,SSW,211,3.0,5.0,97,0.07,,---,0.32,VWS V14.01,2013-01-13 11:38:00,
2013-01-13 06:43:00,57.9,57.1,29.90,SW,234,0.0,3.0,97,0.08,,---,0.33,VWS V14.01,2013-01-13 11:43:00,
2013-01-13 06:48:00,57.9,57.1,29.90,WSW,250,0.0,1.0,97,0.08,,---,0.33,VWS V14.01,2013-01-13 11:48:00,
2013-01-13 06:53:00,57.9,57.1,29.90,SSW,193,3.0,3.0,97,0.07,,---,0.33,VWS V14.01,2013-01-13 11:53:00,
2013-01-13 06:58:00,57.8,57.0,29.90,SSW,194,0.0,1.0,97,0.06,,---,0.33,VWS V14.01,2013-01-13 11:58:00,
2013-01-13 07:03:00,57.8,57.0,29.90,SSW,201,0.0,0.0,97,0.05,,---,0.33,VWS V14.01,2013-01-13 12:03:00,
2013-01-13 07:09:00,57.8,57.0,29.90,SSW,201,0.0,4.0,97,0.04,,---,0.33,VWS V14.01,2013-01-13 12:09:00,
2013-01-13 07:14:00,57.8,57.0,29.91,South,175,0.0,4.0,97,0.03,,---,0.33,VWS V14.01,2013-01-13 12:14:00,
2013-01-13 07:19:00,57.8,57.0,29.91,SSE,165,0.0,4.0,97,0.02,,---,0.33,VWS V14.01,2013-01-13 12:19:00,
2013-01-13 07:24:00,57.8,57.0,29.92,SSE,168,2.0,2.0,97,0.02,,---,0.33,VWS V14.01,2013-01-13 12:24:00,
2013-01-13 07:29:00,57.8,57.0,29.92,South,169,0.0,1.0,97,0.01,,---,0.33,VWS V14.01,2013-01-13 12:29:00,
2013-01-13 07:34:00,57.8,57.2,29.92,South,169,4.0,4.0,98,0.02,,---,0.34,VWS V14.01,2013-01-13 12:34:00,
2013-01-13 07:39:00,57.7,57.1,29.92,South,169,0.0,1.0,98,0.02,,---,0.34,VWS V14.01,2013-01-13 12:39:00,
2013-01-13 07:44:00,57.7,57.1,29.92,South,169,0.0,0.0,98,0.01,,---,0.34,VWS V14.01,2013-01-13 12:44:00,
2013-01-13 07:49:00,57.7,57.1,29.92,South,169,1.0,2.0,98,0.01,,---,0.34,VWS V14.01,2013-01-13 12:49:00,
2013-01-13 07:54:00,57.7,57.1,29.92,South,173,1.0,2.0,98,0.02,,---,0.35,VWS V14.01,2013-01-13 12:54:00,
2013-01-13 07:59:00,57.7,57.1,29.93,South,182,4.0,5.0,98,0.02,,---,0.35,VWS V14.01,2013-01-13 12:59:00,
2013-01-13 08:04:00,57.7,57.1,29.93,SSE,167,2.0,5.0,98,0.02,,---,0.35,VWS V14.01,2013-01-13 13:04:00,
2013-01-13 08:09:00,57.6,57.0,29.93,SSE,147,2.0,7.0,98,0.02,,---,0.35,VWS V14.01,2013-01-13 13:09:00,
2013-01-13 08:14:00,57.6,57.0,29.93,SSE,163,4.0,6.0,98,0.02,,---,0.35,VWS V14.01,2013-01-13 13:14:00,
2013-01-13 08:19:00,57.6,57.0,29.93,SSE,164,5.0,5.0,98,0.03,,---,0.36,VWS V14.01,2013-01-13 13:19:00,
2013-01-13 08:24:00,57.6,57.0,29.94,South,174,0.0,5.0,98,0.04,,---,0.37,VWS V14.01,2013-01-13 13:24:00,
2013-01-13 08:29:00,57.6,57.0,29.94,SSW,195,1.0,5.0,98,0.04,,---,0.37,VWS V14.01,2013-01-13 13:29:00,
2013-01-13 08:34:00,57.6,57.0,29.94,South,190,4.0,5.0,98,0.05,,---,0.38,VWS V14.01,2013-01-13 13:34:00,
2013-01-13 08:39:00,57.6,57.0,29.94,South,189,3.0,7.0,98,0.04,,---,0.38,VWS V14.01,2013-01-13 13:39:00,
2013-01-13 08:44:00,57.6,57.0,29.94,South,174,2.0,4.0,98,0.05,,---,0.39,VWS V14.01,2013-01-13 13:44:00,
2013-01-13 08:49:00,57.6,57.0,29.94,SSE,167,5.0,6.0,98,0.05,,---,0.39,VWS V14.01,2013-01-13 13:49:00,
2013-01-13 08:54:00,57.6,57.0,29.93,SSW,205,4.0,5.0,98,0.06,,---,0.40,VWS V14.01,2013-01-13 13:54:00,
2013-01-13 08:59:00,57.6,57.0,29.93,SE,138,5.0,7.0,98,0.05,,---,0.40,VWS V14.01,2013-01-13 13:59:00,
2013-01-13 09:04:00,57.5,56.9,29.92,SSE,161,1.0,5.0,98,0.05,,---,0.40,VWS V14.01,2013-01-13 14:04:00,
2013-01-13 09:09:00,57.5,56.9,29.92,SE,136,6.0,6.0,98,0.05,,---,0.40,VWS V14.01,2013-01-13 14:09:00,
2013-01-13 09:14:00,57.5,56.9,29.92,SE,130,6.0,6.0,98,0.05,,---,0.40,VWS V14.01,2013-01-13 14:14:00,
2013-01-13 09:19:00,57.5,56.9,29.91,SE,145,4.0,6.0,98,0.05,,---,0.41,VWS V14.01,2013-01-13 14:19:00,
2013-01-13 09:24:00,57.5,56.9,29.90,SSE,150,9.0,11.0,98,0.05,,---,0.41,VWS V14.01,2013-01-13 14:24:00,
2013-01-13 09:29:00,57.5,56.9,29.89,SSE,157,5.0,13.0,98,0.04,,---,0.41,VWS V14.01,2013-01-13 14:29:00,
2013-01-13 09:34:00,57.5,56.9,29.90,SSE,154,5.0,9.0,98,0.04,,---,0.41,VWS V14.01,2013-01-13 14:34:00,
2013-01-13 09:39:00,57.5,56.7,29.90,SSE,168,6.0,11.0,97,0.03,,---,0.41,VWS V14.01,2013-01-13 14:39:00,
2013-01-13 09:44:00,57.5,56.7,29.90,SE,142,5.0,9.0,97,0.02,,---,0.41,VWS V14.01,2013-01-13 14:44:00,
2013-01-13 09:49:00,57.5,56.7,29.90,South,175,5.0,7.0,97,0.02,,---,0.41,VWS V14.01,2013-01-13 14:49:00,
2013-01-13 09:54:00,57.5,56.7,29.90,SE,141,5.0,10.0,97,0.01,,---,0.41,VWS V14.01,2013-01-13 14:54:00,
2013-01-13 09:59:00,57.5,56.7,29.90,SSE,153,6.0,9.0,97,0.01,,---,0.41,VWS V14.01,2013-01-13 14:59:00,
2013-01-13 10:04:00,57.5,56.7,29.91,SSE,163,7.0,7.0,97,0.01,,---,0.41,VWS V14.01,2013-01-13 15:04:00,
2013-01-13 10:09:00,57.5,56.7,29.91,South,173,4.0,8.0,97,0.01,,---,0.41,VWS V14.01,2013-01-13 15:09:00,
2013-01-13 10:14:00,57.6,56.8,29.91,South,176,0.0,5.0,97,0.01,,---,0.41,VWS V14.01,2013-01-13 15:14:00,
2013-01-13 10:19:00,57.6,56.8,29.91,SSE,154,8.0,9.0,97,0.00,,---,0.41,VWS V14.01,2013-01-13 15:19:00,
2013-01-13 10:24:00,57.6,56.8,29.89,South,169,6.0,10.0,97,0.00,,---,0.41,VWS V14.01,2013-01-13 15:24:00,
2013-01-13 10:29:00,57.6,56.8,29.90,SSE,168,2.0,7.0,97,0.00,,---,0.41,VWS V14.01,2013-01-13 15:29:00,
2013-01-13 10:34:00,57.6,56.8,29.91,South,186,5.0,5.0,97,0.00,,---,0.41,VWS V14.01,2013-01-13 15:34:00,
2013-01-13 10:39:00,57.6,56.8,29.91,SSE,161,5.0,6.0,97,0.00,,---,0.41,VWS V14.01,2013-01-13 15:39:00,
2013-01-13 10:44:00,57.6,56.8,29.91,SSW,197,4.0,7.0,97,0.00,,---,0.41,VWS V14.01,2013-01-13 15:44:00,
2013-01-13 10:49:00,57.6,56.8,29.91,SSE,161,4.0,5.0,97,0.00,,---,0.41,VWS V14.01,2013-01-13 15:49:00,
2013-01-13 10:54:00,57.6,56.8,29.91,South,180,4.0,5.0,97,0.01,,---,0.42,VWS V14.01,2013-01-13 15:54:00,
2013-01-13 10:59:00,57.6,56.8,29.91,South,175,1.0,5.0,97,0.01,,---,0.42,VWS V14.01,2013-01-13 15:59:00,
2013-01-13 11:04:00,57.6,56.8,29.91,South,186,4.0,5.0,97,0.01,,---,0.42,VWS V14.01,2013-01-13 16:04:00,
2013-01-13 11:09:00,57.7,56.9,29.91,South,178,2.0,3.0,97,0.01,,---,0.42,VWS V14.01,2013-01-13 16:09:00,
2013-01-13 11:14:00,57.7,56.9,29.91,South,171,1.0,2.0,97,0.01,,---,0.42,VWS V14.01,2013-01-13 16:14:00,
2013-01-13 11:19:00,57.7,56.9,29.90,South,178,6.0,9.0,97,0.01,,---,0.42,VWS V14.01,2013-01-13 16:19:00,
2013-01-13 11:24:00,57.7,56.9,29.92,South,175,5.0,5.0,97,0.01,,---,0.42,VWS V14.01,2013-01-13 16:24:00,
2013-01-13 11:29:00,57.8,56.7,29.92,South,171,4.0,5.0,96,0.02,,---,0.43,VWS V14.01,2013-01-13 16:29:00,
2013-01-13 11:34:00,57.8,56.7,29.91,South,181,4.0,6.0,96,0.02,,---,0.43,VWS V14.01,2013-01-13 16:34:00,
2013-01-13 11:39:00,57.8,56.7,29.90,South,183,1.0,5.0,96,0.02,,---,0.43,VWS V14.01,2013-01-13 16:39:00,
2013-01-13 11:44:00,57.7,56.6,29.90,ESE,121,7.0,8.0,96,0.03,,---,0.44,VWS V14.01,2013-01-13 16:44:00,
2013-01-13 11:49:00,57.7,56.6,29.89,SSE,158,6.0,9.0,96,0.03,,---,0.44,VWS V14.01,2013-01-13 16:49:00,
2013-01-13 11:54:00,57.7,56.6,29.89,South,182,4.0,12.0,96,0.02,,---,0.44,VWS V14.01,2013-01-13 16:54:00,
2013-01-13 11:59:00,57.6,56.5,29.87,SSE,157,8.0,13.0,96,0.03,,---,0.45,VWS V14.01,2013-01-13 16:59:00,
2013-01-13 12:04:00,57.7,56.6,29.86,SSE,153,8.0,11.0,96,0.03,,---,0.45,VWS V14.01,2013-01-13 17:04:00,
2013-01-13 12:09:00,57.7,56.6,29.86,SSW,197,5.0,7.0,96,0.03,,---,0.45,VWS V14.01,2013-01-13 17:09:00,
2013-01-13 12:14:00,57.7,56.6,29.87,SSW,197,7.0,7.0,96,0.03,,---,0.45,VWS V14.01,2013-01-13 17:14:00,
2013-01-13 12:20:00,57.8,56.7,29.87,SSE,161,7.0,9.0,96,0.03,,---,0.45,VWS V14.01,2013-01-13 17:20:00,
2013-01-13 12:25:00,57.9,56.8,29.88,SSE,164,2.0,9.0,96,0.03,,---,0.45,VWS V14.01,2013-01-13 17:25:00,
2013-01-13 12:30:00,58.0,56.9,29.88,South,178,5.0,7.0,96,0.02,,---,0.45,VWS V14.01,2013-01-13 17:30:00,
2013-01-13 12:35:00,58.1,56.7,29.87,South,180,3.0,8.0,95,0.02,,---,0.45,VWS V14.01,2013-01-13 17:35:00,
2013-01-13 12:40:00,58.2,56.8,29.87,South,183,5.0,11.0,95,0.02,,---,0.45,VWS V14.01,2013-01-13 17:40:00,
2013-01-13 12:45:00,58.2,56.8,29.86,South,184,2.0,3.0,95,0.01,,---,0.45,VWS V14.01,2013-01-13 17:45:00,
2013-01-13 12:50:00,58.2,56.8,29.87,SSW,200,0.0,3.0,95,0.01,,---,0.45,VWS V14.01,2013-01-13 17:50:00,
2013-01-13 12:55:00,58.3,56.9,29.87,SSE,167,0.0,2.0,95,0.01,,---,0.45,VWS V14.01,2013-01-13 17:55:00,
2013-01-13 13:00:00,58.4,57.0,29.88,SSE,167,0.0,1.0,95,0.00,,---,0.45,VWS V14.01,2013-01-13 18:00:00,
2013-01-13 13:05:00,58.4,57.0,29.87,South,187,0.0,3.0,95,0.00,,---,0.45,VWS V14.01,2013-01-13 18:05:00,
2013-01-13 13:10:00,58.4,57.0,29.87,South,169,0.0,4.0,95,0.00,,---,0.45,VWS V14.01,2013-01-13 18:10:00,
2013-01-13 13:15:00,58.5,57.1,29.87,South,176,0.0,5.0,95,0.00,,---,0.45,VWS V14.01,2013-01-13 18:15:00,
2013-01-13 13:20:00,58.5,57.1,29.87,South,176,5.0,6.0,95,0.00,,---,0.45,VWS V14.01,2013-01-13 18:20:00,
2013-01-13 13:25:00,58.5,57.1,29.86,South,175,1.0,5.0,95,0.00,,---,0.45,VWS V14.01,2013-01-13 18:25:00,
2013-01-13 13:30:00,58.4,57.0,29.85,SSE,167,2.0,5.0,95,0.00,,---,0.45,VWS V14.01,2013-01-13 18:30:00,
2013-01-13 13:35:00,58.4,57.0,29.85,SSE,148,4.0,8.0,95,0.00,,---,0.45,VWS V14.01,2013-01-13 18:35:00,
2013-01-13 13:40:00,58.4,57.0,29.84,SSE,168,4.0,7.0,95,0.00,,---,0.45,VWS V14.01,2013-01-13 18:40:00,
2013-01-13 13:45:00,58.4,57.0,29.84,SSE,161,5.0,7.0,95,0.00,,---,0.45,VWS V14.01,2013-01-13 18:45:00,
2013-01-13 13:50:00,58.4,57.0,29.84,South,187,5.0,5.0,95,0.00,,---,0.45,VWS V14.01,2013-01-13 18:50:00,
2013-01-13 13:55:00,58.4,56.7,29.84,South,180,2.0,8.0,94,0.00,,---,0.45,VWS V14.01,2013-01-13 18:55:00,
2013-01-13 14:00:00,58.3,56.6,29.84,South,179,4.0,6.0,94,0.00,,---,0.45,VWS V14.01,2013-01-13 19:00:00,
2013-01-13 14:05:00,58.2,56.5,29.84,South,173,1.0,7.0,94,0.00,,---,0.45,VWS V14.01,2013-01-13 19:05:00,
2013-01-13 14:10:00,58.2,56.8,29.84,SSE,153,7.0,8.0,95,0.00,,---,0.45,VWS V14.01,2013-01-13 19:10:00,
2013-01-13 14:15:00,58.2,56.5,29.84,South,175,4.0,4.0,94,0.00,,---,0.45,VWS V14.01,2013-01-13 19:15:00,
2013-01-13 14:20:00,58.1,56.7,29.84,SSW,201,5.0,5.0,95,0.00,,---,0.45,VWS V14.01,2013-01-13 19:20:00,
2013-01-13 14:25:00,58.0,56.6,29.85,South,183,2.0,6.0,95,0.01,,---,0.46,VWS V14.01,2013-01-13 19:25:00,
2013-01-13 14:30:00,57.9,56.5,29.85,South,169,4.0,6.0,95,0.01,,---,0.46,VWS V14.01,2013-01-13 19:30:00,
2013-01-13 14:35:00,57.9,56.8,29.85,South,178,2.0,4.0,96,0.02,,---,0.47,VWS V14.01,2013-01-13 19:35:00,
2013-01-13 14:40:00,57.9,56.8,29.85,SSE,167,6.0,8.0,96,0.03,,---,0.48,VWS V14.01,2013-01-13 19:40:00,
2013-01-13 14:45:00,57.8,56.7,29.86,South,188,2.0,6.0,96,0.04,,---,0.49,VWS V14.01,2013-01-13 19:45:00,
2013-01-13 14:50:00,57.8,56.7,29.86,South,175,1.0,5.0,96,0.05,,---,0.50,VWS V14.01,2013-01-13 19:50:00,
2013-01-13 14:55:00,57.8,56.7,29.86,South,186,5.0,5.0,96,0.06,,---,0.51,VWS V14.01,2013-01-13 19:55:00,
2013-01-13 15:00:00,57.8,56.7,29.86,South,181,2.0,6.0,96,0.06,,---,0.51,VWS V14.01,2013-01-13 20:00:00,
2013-01-13 15:05:00,57.8,57.0,29.85,SSE,165,5.0,5.0,97,0.07,,---,0.52,VWS V14.01,2013-01-13 20:05:00,
2013-01-13 15:10:00,57.8,57.0,29.85,SSE,157,4.0,6.0,97,0.08,,---,0.53,VWS V14.01,2013-01-13 20:10:00,
2013-01-13 15:15:00,57.9,57.1,29.86,SSW,192,6.0,10.0,97,0.09,,---,0.54,VWS V14.01,2013-01-13 20:15:00,
2013-01-13 15:20:00,57.9,57.1,29.85,South,185,4.0,5.0,97,0.09,,---,0.54,VWS V14.01,2013-01-13 20:20:00,
2013-01-13 15:25:00,58.0,57.2,29.85,South,180,0.0,4.0,97,0.09,,---,0.55,VWS V14.01,2013-01-13 20:25:00,
2013-01-13 15:30:00,58.1,57.3,29.85,SSW,206,3.0,6.0,97,0.09,,---,0.55,VWS V14.01,2013-01-13 20:30:00,
2013-01-13 15:35:00,58.2,57.4,29.86,SSW,200,2.0,4.0,97,0.09,,---,0.56,VWS V14.01,2013-01-13 20:35:00,
2013-01-13 15:40:00,58.2,57.4,29.86,SSW,192,1.0,4.0,97,0.09,,---,0.56,VWS V14.01,2013-01-13 20:40:00,
2013-01-13 15:45:00,58.3,57.5,29.86,SSW,211,0.0,6.0,97,0.08,,---,0.57,VWS V14.01,2013-01-13 20:45:00,
2013-01-13 15:50:00,58.4,57.6,29.87,SSW,193,2.0,5.0,97,0.07,,---,0.57,VWS V14.01,2013-01-13 20:50:00,
2013-01-13 15:55:00,58.4,57.6,29.87,WSW,254,2.0,4.0,97,0.06,,---,0.57,VWS V14.01,2013-01-13 20:55:00,
2013-01-13 16:00:00,58.5,57.7,29.87,SSW,201,1.0,3.0,97,0.07,,---,0.58,VWS V14.01,2013-01-13 21:00:00,
2013-01-13 16:05:00,58.5,57.7,29.87,West,264,3.0,5.0,97,0.08,,---,0.60,VWS V14.01,2013-01-13 21:05:00,
2013-01-13 16:10:00,58.5,57.7,29.87,South,184,0.0,1.0,97,0.09,,---,0.62,VWS V14.01,2013-01-13 21:10:00,
2013-01-13 16:15:00,58.5,57.7,29.87,SW,218,1.0,3.0,97,0.10,,---,0.63,VWS V14.01,2013-01-13 21:15:00,
2013-01-13 16:20:00,58.5,57.7,29.88,South,175,1.0,4.0,97,0.10,,---,0.64,VWS V14.01,2013-01-13 21:20:00,
2013-01-13 16:25:00,58.6,57.8,29.88,SSW,211,4.0,5.0,97,0.10,,---,0.65,VWS V14.01,2013-01-13 21:25:00,
2013-01-13 16:30:00,58.6,57.8,29.88,WSW,252,1.0,4.0,97,0.11,,---,0.66,VWS V14.01,2013-01-13 21:30:00,
2013-01-13 16:35:00,58.6,57.8,29.89,WSW,250,3.0,9.0,97,0.11,,---,0.67,VWS V14.01,2013-01-13 21:35:00,
2013-01-13 16:40:00,58.6,57.8,29.89,WSW,250,0.0,1.0,97,0.14,,---,0.70,VWS V14.01,2013-01-13 21:40:00,
2013-01-13 16:45:00,58.5,57.7,29.88,SSW,212,1.0,1.0,97,0.16,,---,0.73,VWS V14.01,2013-01-13 21:45:00,
2013-01-13 16:50:00,58.4,57.6,29.86,SE,144,0.0,2.0,97,0.19,,---,0.76,VWS V14.01,2013-01-13 21:50:00,
2013-01-13 16:55:00,58.4,57.6,29.86,South,188,0.0,1.0,97,0.20,,---,0.77,VWS V14.01,2013-01-13 21:55:00,
2013-01-13 17:00:00,58.3,57.5,29.85,South,188,0.0,0.0,97,0.19,,---,0.77,VWS V14.01,2013-01-13 22:00:00,
2013-01-13 17:05:00,58.3,57.5,29.86,South,188,0.0,1.0,97,0.18,,---,0.78,VWS V14.01,2013-01-13 22:05:00,
2013-01-13 17:11:00,58.3,57.7,29.85,South,177,1.0,2.0,98,0.17,,---,0.79,VWS V14.01,2013-01-13 22:11:00,
2013-01-13 17:16:00,58.2,57.4,29.85,South,173,1.0,1.0,97,0.16,,---,0.79,VWS V14.01,2013-01-13 22:16:00,
2013-01-13 17:21:00,58.2,57.4,29.85,South,188,0.0,1.0,97,0.16,,---,0.80,VWS V14.01,2013-01-13 22:21:00,
2013-01-13 17:26:00,58.2,57.4,29.85,West,261,1.0,3.0,97,0.16,,---,0.81,VWS V14.01,2013-01-13 22:26:00,
2013-01-13 17:32:00,58.2,57.4,29.86,NW,308,3.0,3.0,97,0.15,,---,0.81,VWS V14.01,2013-01-13 22:32:00,
2013-01-13 17:37:00,55.1,52.8,29.87,NW,309,4.0,7.0,92,0.15,,---,0.83,VWS V14.01,2013-01-13 22:37:00,
2013-01-13 17:42:00,52.0,49.8,29.88,North,355,6.0,6.0,92,0.14,,---,0.85,VWS V14.01,2013-01-13 22:42:00,
2013-01-13 17:47:00,49.9,47.7,29.89,West,272,2.0,4.0,92,0.14,,---,0.88,VWS V14.01,2013-01-13 22:47:00,
2013-01-13 17:52:00,48.5,46.6,29.90,NNW,334,2.0,7.0,93,0.14,,---,0.90,VWS V14.01,2013-01-13 22:52:00,
2013-01-13 17:57:00,47.3,45.7,29.90,NW,325,3.0,4.0,94,0.16,,---,0.93,VWS V14.01,2013-01-13 22:57:00,
2013-01-13 18:02:00,46.4,44.8,29.91,WNW,296,5.0,6.0,94,0.18,,---,0.95,VWS V14.01,2013-01-13 23:02:00,
2013-01-13 18:08:00,45.2,43.6,29.92,NW,319,0.0,4.0,94,0.19,,---,0.97,VWS V14.01,2013-01-13 23:08:00,
2013-01-13 18:14:00,44.3,43.0,29.91,WNW,294,3.0,4.0,95,0.19,,---,0.98,VWS V14.01,2013-01-13 23:14:00,
2013-01-13 18:19:00,43.7,42.4,29.92,NW,304,3.0,4.0,95,0.20,,---,0.99,VWS V14.01,2013-01-13 23:19:00,
2013-01-13 18:24:00,43.2,41.9,29.93,NW,310,3.0,6.0,95,0.20,,---,1.00,VWS V14.01,2013-01-13 23:24:00,
2013-01-13 18:29:00,42.7,41.4,29.93,NNE,14,3.0,6.0,95,0.20,,---,1.01,VWS V14.01,2013-01-13 23:29:00,
2013-01-13 18:34:00,42.1,40.8,29.94,NW,315,2.0,6.0,95,0.21,,---,1.02,VWS V14.01,2013-01-13 23:34:00,
2013-01-13 18:39:00,41.7,40.4,29.95,WNW,294,0.0,3.0,95,0.20,,---,1.03,VWS V14.01,2013-01-13 23:39:00,
2013-01-13 18:44:00,41.5,40.2,29.95,North,5,0.0,4.0,95,0.17,,---,1.03,VWS V14.01,2013-01-13 23:44:00,
2013-01-13 18:49:00,41.4,40.3,29.96,WNW,284,0.0,0.0,96,0.14,,---,1.03,VWS V14.01,2013-01-13 23:49:00,
2013-01-13 18:54:00,41.3,40.2,29.95,NNW,346,4.0,4.0,96,0.12,,---,1.03,VWS V14.01,2013-01-13 23:54:00,
2013-01-13 18:59:00,41.0,40.0,29.94,NNW,337,3.0,5.0,96,0.11,,---,1.04,VWS V14.01,2013-01-13 23:59:00,
2013-01-13 19:04:00,40.9,39.8,29.95,NNW,339,2.0,6.0,96,0.10,,---,1.05,VWS V14.01,2013-01-14 00:04:00,
2013-01-13 19:09:00,40.8,39.8,29.95,NNW,333,0.0,0.0,96,0.08,,---,1.05,VWS V14.01,2013-01-14 00:09:00,
2013-01-13 19:14:00,40.7,39.7,29.96,NW,313,6.0,6.0,96,0.08,,---,1.06,VWS V14.01,2013-01-14 00:14:00,
2013-01-13 19:19:00,40.5,39.5,29.96,North,355,2.0,5.0,96,0.08,,---,1.07,VWS V14.01,2013-01-14 00:19:00,
2013-01-13 19:24:00,40.2,39.2,29.97,NW,323,0.0,3.0,96,0.07,,---,1.07,VWS V14.01,2013-01-14 00:24:00,
2013-01-13 19:29:00,40.1,39.0,29.97,NNE,24,0.0,3.0,96,0.06,,---,1.07,VWS V14.01,2013-01-14 00:29:00,
2013-01-13 19:35:00,40.0,39.0,29.98,NW,312,3.0,3.0,96,0.07,,---,1.09,VWS V14.01,2013-01-14 00:35:00,
2013-01-13 19:40:00,39.7,38.7,29.99,WNW,288,3.0,5.0,96,0.07,,---,1.10,VWS V14.01,2013-01-14 00:40:00,
2013-01-13 19:45:00,39.2,38.2,29.99,NW,314,0.0,6.0,96,0.08,,---,1.11,VWS V14.01,2013-01-14 00:45:00,
2013-01-13 19:50:00,38.9,37.9,29.99,North,350,0.0,3.0,96,0.10,,---,1.13,VWS V14.01,2013-01-14 00:50:00,
2013-01-13 19:55:00,38.9,37.9,30.00,WNW,298,4.0,8.0,96,0.10,,---,1.13,VWS V14.01,2013-01-14 00:55:00,
2013-01-13 20:00:00,38.4,37.4,30.00,WNW,300,3.0,5.0,96,0.10,,---,1.14,VWS V14.01,2013-01-14 01:00:00,
2013-01-13 20:05:00,38.0,37.0,30.00,WNW,296,3.0,6.0,96,0.10,,---,1.15,VWS V14.01,2013-01-14 01:05:00,
2013-01-13 20:10:00,37.6,36.6,30.00,WNW,299,5.0,5.0,96,0.10,,---,1.15,VWS V14.01,2013-01-14 01:10:00,
2013-01-13 20:15:00,37.3,36.3,30.01,NW,317,3.0,7.0,96,0.09,,---,1.15,VWS V14.01,2013-01-14 01:15:00,
2013-01-13 20:20:00,36.9,35.9,30.01,NW,320,0.0,6.0,96,0.08,,---,1.15,VWS V14.01,2013-01-14 01:20:00,
2013-01-13 20:25:00,36.6,35.6,30.01,North,5,0.0,6.0,96,0.08,,---,1.15,VWS V14.01,2013-01-14 01:25:00,
2013-01-13 20:30:00,36.4,35.4,30.02,NNW,344,3.0,6.0,96,0.09,,---,1.16,VWS V14.01,2013-01-14 01:30:00,
2013-01-13 20:35:00,36.2,34.9,30.02,West,278,2.0,4.0,95,0.07,,---,1.16,VWS V14.01,2013-01-14 01:35:00,
2013-01-13 20:40:00,36.2,35.2,30.03,NW,317,6.0,7.0,96,0.06,,---,1.16,VWS V14.01,2013-01-14 01:40:00,
2013-01-13 20:45:00,36.0,35.0,30.03,NW,307,3.0,7.0,96,0.05,,---,1.16,VWS V14.01,2013-01-14 01:45:00,
2013-01-13 20:50:00,35.9,34.6,30.03,NW,324,0.0,5.0,95,0.04,,---,1.16,VWS V14.01,2013-01-14 01:50:00,
2013-01-13 20:55:00,35.9,34.9,30.02,NW,305,1.0,4.0,96,0.03,,---,1.16,VWS V14.01,2013-01-14 01:55:00,
2013-01-13 21:00:00,35.9,34.9,30.03,NW,306,0.0,5.0,96,0.02,,---,1.16,VWS V14.01,2013-01-14 02:00:00,
2013-01-13 21:05:00,35.9,34.9,30.03,NW,306,0.0,4.0,96,0.02,,---,1.16,VWS V14.01,2013-01-14 02:05:00,
2013-01-13 21:10:00,35.8,34.8,30.03,West,277,3.0,5.0,96,0.01,,---,1.16,VWS V14.01,2013-01-14 02:10:00,
2013-01-13 21:15:00,35.8,34.5,30.03,NNW,342,0.0,2.0,95,0.01,,---,1.16,VWS V14.01,2013-01-14 02:15:00,
2013-01-13 21:20:00,35.8,34.5,30.04,NNW,331,2.0,2.0,95,0.01,,---,1.16,VWS V14.01,2013-01-14 02:20:00,
2013-01-13 21:25:00,35.8,34.8,30.05,NW,312,0.0,3.0,96,0.01,,---,1.16,VWS V14.01,2013-01-14 02:25:00,
2013-01-13 21:30:00,35.8,34.8,30.04,WNW,292,3.0,5.0,96,0.00,,---,1.16,VWS V14.01,2013-01-14 02:30:00,
2013-01-13 21:35:00,35.8,34.5,30.05,NW,319,0.0,3.0,95,0.00,,---,1.16,VWS V14.01,2013-01-14 02:35:00,
2013-01-13 21:40:00,35.8,34.5,30.06,NW,315,0.0,3.0,95,0.00,,---,1.16,VWS V14.01,2013-01-14 02:40:00,
2013-01-13 21:45:00,35.8,34.5,30.06,NW,322,0.0,3.0,95,0.00,,---,1.16,VWS V14.01,2013-01-14 02:45:00,
2013-01-13 21:50:00,35.7,34.4,30.07,NW,308,0.0,3.0,95,0.00,,---,1.16,VWS V14.01,2013-01-14 02:50:00,
2013-01-13 21:55:00,35.7,34.4,30.07,NW,317,0.0,4.0,95,0.00,,---,1.16,VWS V14.01,2013-01-14 02:55:00,
2013-01-13 22:00:00,35.7,34.4,30.07,North,355,0.0,7.0,95,0.00,,---,1.16,VWS V14.01,2013-01-14 03:00:00,
2013-01-13 22:05:00,35.7,34.4,30.08,NW,310,3.0,6.0,95,0.00,,---,1.16,VWS V14.01,2013-01-14 03:05:00,
2013-01-13 22:10:00,35.7,34.4,30.08,WNW,295,5.0,5.0,95,0.00,,---,1.16,VWS V14.01,2013-01-14 03:10:00,
2013-01-13 22:15:00,35.7,34.2,30.08,West,276,4.0,4.0,94,0.00,,---,1.16,VWS V14.01,2013-01-14 03:15:00,
2013-01-13 22:20:00,35.7,34.2,30.09,North,11,1.0,5.0,94,0.00,,---,1.16,VWS V14.01,2013-01-14 03:20:00,
2013-01-13 22:25:00,35.7,34.2,30.09,WNW,300,5.0,5.0,94,0.00,,---,1.16,VWS V14.01,2013-01-14 03:25:00,
2013-01-13 22:30:00,35.7,34.2,30.09,WNW,296,0.0,3.0,94,0.00,,---,1.16,VWS V14.01,2013-01-14 03:30:00,
2013-01-13 22:35:00,35.7,34.2,30.10,WNW,291,0.0,0.0,94,0.00,,---,1.16,VWS V14.01,2013-01-14 03:35:00,
2013-01-13 22:40:00,35.7,34.2,30.10,WNW,293,0.0,1.0,94,0.00,,---,1.16,VWS V14.01,2013-01-14 03:40:00,
2013-01-13 22:45:00,35.7,34.2,30.11,NW,313,0.0,4.0,94,0.00,,---,1.16,VWS V14.01,2013-01-14 03:45:00,
2013-01-13 22:50:00,35.7,34.2,30.11,NW,325,1.0,3.0,94,0.00,,---,1.16,VWS V14.01,2013-01-14 03:50:00,
2013-01-13 22:55:00,35.6,34.0,30.11,NNW,332,0.0,2.0,94,0.00,,---,1.16,VWS V14.01,2013-01-14 03:55:00,
2013-01-13 23:00:00,35.6,34.0,30.12,NW,319,0.0,4.0,94,0.00,,---,1.16,VWS V14.01,2013-01-14 04:00:00,
2013-01-13 23:05:00,35.6,34.0,30.12,NW,308,1.0,2.0,94,0.00,,---,1.16,VWS V14.01,2013-01-14 04:05:00,
2013-01-13 23:10:00,35.5,34.0,30.12,WNW,303,0.0,3.0,94,0.00,,---,1.16,VWS V14.01,2013-01-14 04:10:00,
2013-01-13 23:15:00,35.5,34.0,30.12,WNW,285,0.0,1.0,94,0.00,,---,1.16,VWS V14.01,2013-01-14 04:15:00,
2013-01-13 23:20:00,35.5,34.0,30.13,WNW,286,3.0,4.0,94,0.00,,---,1.16,VWS V14.01,2013-01-14 04:20:00,
2013-01-13 23:25:00,35.3,33.8,30.13,NW,315,6.0,6.0,94,0.00,,---,1.16,VWS V14.01,2013-01-14 04:25:00,
2013-01-13 23:30:00,35.2,33.4,30.14,North,349,0.0,0.0,93,0.00,,---,1.16,VWS V14.01,2013-01-14 04:30:00,
2013-01-13 23:35:00,35.1,33.3,30.14,North,9,0.0,2.0,93,0.00,,---,1.16,VWS V14.01,2013-01-14 04:35:00,
2013-01-13 23:40:00,35.0,33.2,30.14,North,355,1.0,3.0,93,0.00,,---,1.16,VWS V14.01,2013-01-14 04:40:00,
2013-01-13 23:45:00,34.9,33.1,30.14,North,5,3.0,3.0,93,0.00,,---,1.16,VWS V14.01,2013-01-14 04:45:00,
2013-01-13 23:50:00,34.8,33.2,30.14,NNE,19,4.0,5.0,94,0.00,,---,1.16,VWS V14.01,2013-01-14 04:50:00,
2013-01-13 23:55:00,34.6,32.8,30.14,WNW,303,2.0,3.0,93,0.00,,---,1.16,VWS V14.01,2013-01-14 04:55:00,